This is the latest recevied weather packets stored in our database for station/object K5NAN. If no packets are shown the sender has not sent any weather packets the latest 10 day(s).
| Time | Temp. | Humidity | Pressure | Rain* | Wind** | Luminosity | Snow |
|---|---|---|---|---|---|---|---|
| 1777984595 | 21.11° C | 86% | 1003.7 hPa | 0 mm | - | 29 W/m² | - |
| 1777984292 | 21.11° C | 85% | 1003.8 hPa | 0 mm | - | 21 W/m² | - |
| 1777983989 | 21.11° C | 85% | 1003.7 hPa | 0 mm | - | 19 W/m² | - |
| 1777983686 | 21.11° C | 85% | 1003.5 hPa | 0 mm | - | 17 W/m² | - |
| 1777983382 | 21.11° C | 85% | 1003.3 hPa | 0 mm | - | 13 W/m² | - |
| 1777983079 | 21.11° C | 85% | 1003.4 hPa | 0 mm | - | 9 W/m² | - |
| 1777982775 | 21.11° C | 85% | 1003.2 hPa | 0 mm | - | 15 W/m² | - |
| 1777982472 | 21.11° C | 86% | 1003.3 hPa | 0 mm | - | 10 W/m² | - |
| 1777982166 | 21.11° C | 86% | 1003.4 hPa | 0 mm | - | 8 W/m² | - |
| 1777981864 | 20.56° C | 86% | 1003.5 hPa | 0 mm | - | 5 W/m² | - |
| 1777981560 | 20.56° C | 85% | 1003.2 hPa | 0 mm | - | 3 W/m² | - |
| 1777981257 | 20.56° C | 85% | 1003.2 hPa | 0 mm | - | 2 W/m² | - |
| 1777980953 | 20.56° C | 85% | 1003.1 hPa | 0 mm | - | 1 W/m² | - |
| 1777980650 | 20.56° C | 86% | 1003 hPa | 0 mm | - | 0 W/m² | - |
| 1777980346 | 20.56° C | 86% | 1003.2 hPa | 0 mm | - | 0 W/m² | - |
| 1777980044 | 20.56° C | 86% | 1002.9 hPa | 0 mm | - | 0 W/m² | - |
| 1777979738 | 20.56° C | 86% | 1002.7 hPa | 0 mm | - | 0 W/m² | - |
| 1777979434 | 20.56° C | 85% | 1002.5 hPa | 0 mm | - | 0 W/m² | - |
| 1777979131 | 20.56° C | 85% | 1002.8 hPa | 0 mm | - | 0 W/m² | - |
| 1777978828 | 20.56° C | 85% | 1002.8 hPa | 0 mm | - | 0 W/m² | - |
| 1777978525 | 20.56° C | 85% | 1002.9 hPa | 0 mm | - | 0 W/m² | - |
| 1777978220 | 21.11° C | 85% | 1003 hPa | 0 mm | - | 0 W/m² | - |
| 1777977918 | 21.11° C | 85% | 1003 hPa | 0 mm | - | 0 W/m² | - |
| 1777977615 | 21.11° C | 85% | 1003.1 hPa | 0 mm | - | 0 W/m² | - |
| 1777977312 | 21.11° C | 85% | 1002.8 hPa | 0 mm | - | 0 W/m² | - |
* Rain latest hour (hover to see other rain measurements)
** Current wind speed in m/s (hover to see current wind gust speed)